This is the latest recevied weather packets stored in our database for station/object LU5DTF-1. If no packets are shown the sender has not sent any weather packets the latest 10 day(s).
| Time | Temp. | Humidity | Pressure | Rain* | Wind** | Luminosity | Snow |
|---|---|---|---|---|---|---|---|
| 1778092800 | 15.56° C | 88% | 1008.1 hPa | 0 mm | - | - | - |
| 1778092500 | 15.56° C | 88% | 1008.1 hPa | 0 mm | - | - | - |
| 1778092200 | 15.56° C | 88% | 1008.4 hPa | 0 mm | - | - | - |
| 1778091900 | 15.56° C | 88% | 1008.4 hPa | 0 mm | - | - | - |
| 1778091600 | 15.56° C | 87% | 1008.5 hPa | 0.25 mm | - | - | - |
| 1778091301 | 15.56° C | 87% | 1008.9 hPa | 0.25 mm | - | - | - |
| 1778091000 | 15.56° C | 86% | 1008.7 hPa | 0.25 mm | - | - | - |
| 1778090700 | 15.56° C | 85% | 1009.1 hPa | 0.51 mm | - | - | - |
| 1778090400 | 16.11° C | 84% | 1009.4 hPa | 1.52 mm | - | - | - |
| 1778090100 | 16.11° C | 83% | 1009.4 hPa | 1.52 mm | - | - | - |
| 1778089800 | 16.11° C | 83% | 1009.7 hPa | 1.52 mm | - | - | - |
| 1778089500 | 16.11° C | 83% | 1009.4 hPa | 1.52 mm | - | - | - |
| 1778089200 | 16.11° C | 82% | 1009.8 hPa | 1.52 mm | - | - | - |
| 1778088900 | 16.11° C | 83% | 1009.9 hPa | 1.52 mm | - | - | - |
| 1778088600 | 16.11° C | 84% | 1010.3 hPa | 1.52 mm | - | - | - |
| 1778088301 | 15.56° C | 85% | 1010.2 hPa | 1.52 mm | - | - | - |
| 1778088000 | 15.56° C | 85% | 1010 hPa | 1.52 mm | - | - | - |
| 1778087700 | 15.56° C | 85% | 1009.8 hPa | 1.52 mm | - | - | - |
| 1778087401 | 15.56° C | 85% | 1009.5 hPa | 1.52 mm | - | - | - |
| 1778087100 | 16.11° C | 82% | 1009.5 hPa | 1.27 mm | - | - | - |
| 1778086800 | 16.67° C | 81% | 1009.7 hPa | 0.25 mm | - | - | - |
| 1778086500 | 16.67° C | 83% | 1010.1 hPa | 0 mm | - | - | - |
| 1778086200 | 16.67° C | 83% | 1008.6 hPa | 0 mm | - | - | - |
| 1778085900 | 16.67° C | 83% | 1008.6 hPa | 0 mm | - | - | - |
| 1778085600 | 16.67° C | 83% | 1008.9 hPa | 0 mm | - | - | - |
* Rain latest hour (hover to see other rain measurements)
** Current wind speed in m/s (hover to see current wind gust speed)